Location: Unspecified
(0.0000°N, 0.0000°E)
Time: 10:12:07
(UTC+00:00)

OTV 4 - Visible Passes

Search period start: 22 January 2017 00:00
Search period end: 01 February 2017 00:00
Orbit: 322 x 354 km, 38.0° (Epoch: 14 January)

Date Brightness Start Highest point End Pass type
(mag) Time Alt. Az. Time Alt. Az. Time Alt. Az.
26 Jan 0.8 18:56:18 10° NNW 18:59:07 42° NE 19:01:20 14° ESE visible
27 Jan 2.3 19:17:28 10° WNW 19:20:08 31° SW 19:22:48 10° SSE visible
29 Jan 2.8 05:25:32 10° SSW 05:27:48 22° SE 05:30:04 10° E visible
30 Jan 0.3 05:46:07 10° WSW 05:48:50 54° NW 05:51:32 10° NE visible
31 Jan 2.7 04:34:39 23° ESE 04:34:39 23° ESE 04:36:23 10° E visible
